Content
SEND FEEDBACK

Daily
Averages
Monthly
Summary
United States of America

NOOKSACK, WASHINGTON


Home > North America > United States > Washington
Elevation: 6 feet     Latitude: 48 58N     Longitude: 122 20W

WEATHER
 
SELECT A DAY
Number of Records: 188,158;   Date Range: 1/1/95 - 12/19/14
 
SHARE

PRINT THIS DATA

[ ← Previous Day ]
WEATHER ALMANAC - JANUARY 23, 2013
[ Next Day → ]
[ °C ]   °F
Weather ElementAverageHighLow
Temperature37.9 °F41 °F (3:52 pm)33.8 °F (1:00 am)
Dewpoint36.2 °F41 °F (4:00 pm)30 °F (4:00 am)
Humidity93.3 %100 % (9:00 am)74 % (4:00 am)
Barometer29.92 in30.07 in (11:00 pm)29.83 in (1:43 pm)
Wind Speed6.3 mph11.5 mph (10:36 pm)
Weather ElementAverage
Visibility9.5 mi
Wind DirectionSSE (153.6 °)

Weather ElementTotal
Precipitation---
Heating Degree Days27.6 (Base 65)
Averaged from 34 records on January 23, 2013
WEATHER CONDITIONS BREAKOUT
WIND DIRECTION BREAKOUT
WEATHER BY HOUR - JANUARY 23, 2013
[ °C ]   °F
Local TimeTemperatureDewpointHumidityBarometerVisibilityWind DirectionWind SpeedGust SpeedPrecipitationEventsConditions
1:00 AM33.8 °F30.2 °F87 %29.95 in10.0 miNorth (350°)3.5 mphOvercast
2:00 AM35.6 °F32.0 °F87 %29.93 in10.0 miNE (50°)8.1 mphOvercast
3:00 AM35.6 °F30.2 °F81 %29.93 in10.0 miCalmOvercast
4:00 AM35.0 °F30.0 °F74 %29.95 in10.0 miSW (230°)3.5 mphPartly Cloudy
4:00 AM33.8 °F30.2 °F87 %29.95 in10.0 miSW (220°)5.8 mphOvercast
5:00 AM35.6 °F30.2 °F81 %29.95 in10.0 miNorth (10°)3.5 mphOvercast
5:25 AM35.6 °F30.2 °F81 %29.93 in10.0 miNNE (30°)8.1 mphRainLight Rain Showers
6:00 AM35.6 °F32.0 °F87 %29.92 in10.0 miNorth (360°)9.2 mphRainLight Rain Showers
7:00 AM35.6 °F32.0 °F87 %29.90 in10.0 miNE (40°)8.1 mphRainLight Rain Showers
8:00 AM35.6 °F33.8 °F93 %29.90 in25.0 miENE (70°)3.5 mphRainLight Rain Showers
9:00 AM35.6 °F35.6 °F100 %29.88 in15.0 miNNE (30°)10.4 mphRainLight Rain
10:00 AM37.0 °F36.0 °F92 %29.89 in15.0 miCalmRainLight Rain
10:00 AM37.4 °F35.6 °F93 %29.89 in15.0 miCalmRainLight Rain
11:00 AM37.4 °F37.4 °F100 %29.88 in15.0 miNE (40°)4.6 mphRainLight Rain
12:00 PM37.4 °F37.4 °F100 %29.86 in4.0 miEast (80°)9.2 mphRainLight Rain
1:00 PM37.4 °F37.4 °F100 %29.84 in10.0 miNorth (350°)3.5 mphRainLight Rain
1:18 PM39.2 °F37.4 °F93 %29.84 in2.5 miNorth (350°)4.6 mphRainLight Rain
1:43 PM37.4 °F37.4 °F100 %29.83 in10.0 miNNE (30°)6.9 mphRainLight Rain
2:00 PM37.4 °F37.4 °F100 %29.83 in6.0 miNNE (20°)5.8 mphRainLight Rain
3:00 PM39.2 °F39.2 °F100 %29.85 in7.0 miCalmRainLight Rain
3:52 PM41.0 °F39.2 °F93 %29.87 in4.0 miSW (220°)5.8 mphRainLight Rain
4:00 PM41.0 °F40.0 °F97 %29.87 in4.0 miSW (220°)8.1 mphRainLight Rain
4:00 PM41.0 °F41.0 °F100 %29.87 in4.0 miSSW (210°)9.2 mphRainLight Rain
5:00 PM41.0 °F41.0 °F100 %29.89 in5.0 miSouth (190°)10.4 mphRainLight Rain
5:41 PM41.0 °F39.2 °F93 %29.90 in7.0 miSouth (180°)8.1 mphRainLight Rain
6:00 PM41.0 °F39.2 °F93 %29.90 in8.0 miSouth (180°)9.2 mphRainLight Rain
7:00 PM41.0 °F39.2 °F93 %29.92 in8.0 miSSW (210°)9.2 mphRainLight Rain
7:19 PM39.2 °F39.2 °F100 %29.94 in8.0 miSW (230°)8.1 mphRainLight Rain
8:00 PM39.2 °F39.2 °F100 %29.96 in10.0 miSSW (200°)6.9 mphRainLight Rain
9:00 PM39.2 °F39.2 °F100 %30.00 in10.0 miSouth (190°)8.1 mphRainLight Rain
10:00 PM40.0 °F39.0 °F94 %30.03 in10.0 miSSW (200°)5.8 mphRainLight Rain
10:00 PM39.2 °F39.2 °F100 %30.03 in10.0 miSSW (210°)5.8 mphRainLight Rain
10:36 PM39.2 °F37.4 °F93 %30.05 in10.0 miSouth (180°)11.5 mphScattered Clouds
11:00 PM39.2 °F37.4 °F93 %30.07 in10.0 miSouth (190°)8.1 mphMostly Cloudy
Hourly data recorded from CYXX, located miles away from Nooksack, Washington







STORIES FROM OUR PARTNERS